• In Uzbekistan
  • List of Countries
  • For 7 days
  • Water Temperature
  • Satellite Maps
  • Weather Map
  • Weather Widgets
  • user-avatar
    Login

    Hourly Weather Cosmopolis

    Today, 21 October, Saturday

    Time Temperature Precipitation Wind Pressure Humidity
    00:00 +24°C° 0 mm 3 mps 713 mmHg 67%
    01:00 +24°C° 0 mm 3 mps 713 mmHg 67%
    02:00 +24°C° 0 mm 3 mps 713 mmHg 66%
    03:00 +24°C° 0 mm 3 mps 713 mmHg 66%
    04:00 +24°C° 0 mm 2 mps 713 mmHg 66%
    05:00 +24°C° 0 mm 2 mps 713 mmHg 67%
    06:00 +24°C° 0 mm 2 mps 713 mmHg 67%
    07:00 +25°C° 0 mm 2 mps 714 mmHg 63%
    08:00 +26°C° 0 mm 2 mps 714 mmHg 59%
    09:00 +27°C° 0 mm 3 mps 715 mmHg 55%
    10:00 +29°C° 0 mm 3 mps 715 mmHg 49%
    11:00 +32°C° 0 mm 4 mps 715 mmHg 43%
    12:00 +34°C° 0 mm 5 mps 715 mmHg 37%
    13:00 +32°C° 0.2 mm 4 mps 714 mmHg 42%
    14:00 +30°C° 0.2 mm 3 mps 714 mmHg 47%
    15:00 +29°C° 0.2 mm 2 mps 713 mmHg 52%
    16:00 +28°C° 0.1 mm 2 mps 713 mmHg 54%
    17:00 +28°C° 0.1 mm 2 mps 713 mmHg 56%
    18:00 +27°C° 0.1 mm 1 mps 714 mmHg 58%
    19:00 +27°C° 0 mm 1 mps 714 mmHg 59%
    20:00 +26°C° 0 mm 1 mps 714 mmHg 60%
    21:00 +26°C° 0 mm 1 mps 714 mmHg 61%
    22:00 +25°C° 0.2 mm 1 mps 714 mmHg 64%
    23:00 +25°C° 0.2 mm 1 mps 714 mmHg 67%

    Tomorrow, 22 October, Sunday

    Time Temperature Precipitation Wind Pressure Humidity
    00:00 +24°C° 0.2 mm 1 mps 715 mmHg 70%
    01:00 +24°C° 0.8 mm 1 mps 714 mmHg 74%
    02:00 +23°C° 0.8 mm 2 mps 714 mmHg 77%
    03:00 +23°C° 0.8 mm 2 mps 713 mmHg 81%
    04:00 +23°C° 0.3 mm 2 mps 714 mmHg 82%
    05:00 +22°C° 0.3 mm 3 mps 714 mmHg 82%
    06:00 +22°C° 0.3 mm 3 mps 714 mmHg 83%
    07:00 +24°C° 0.2 mm 3 mps 714 mmHg 78%
    08:00 +25°C° 0.2 mm 3 mps 715 mmHg 72%
    09:00 +26°C° 0.2 mm 4 mps 715 mmHg 67%
    10:00 +26°C° 0.7 mm 3 mps 715 mmHg 69%
    11:00 +26°C° 0.7 mm 3 mps 715 mmHg 71%
    12:00 +26°C° 0.7 mm 2 mps 715 mmHg 73%
    13:00 +26°C° 0.3 mm 2 mps 714 mmHg 71%
    14:00 +27°C° 0.3 mm 2 mps 714 mmHg 69%
    15:00 +27°C° 0.3 mm 1 mps 713 mmHg 66%
    16:00 +26°C° 0.8 mm 2 mps 713 mmHg 72%
    17:00 +25°C° 0.8 mm 2 mps 713 mmHg 78%
    18:00 +24°C° 0.8 mm 3 mps 713 mmHg 83%
    19:00 +22°C° 0.9 mm 3 mps 714 mmHg 85%
    20:00 +22°C° 0.9 mm 3 mps 714 mmHg 87%
    21:00 +21°C° 0.9 mm 3 mps 714 mmHg 89%
    22:00 +21°C° 0.5 mm 3 mps 714 mmHg 89%
    23:00 +21°C° 0.5 mm 2 mps 715 mmHg 89%

    Day after tomorrow, 23 October, Monday

    Time Temperature Precipitation Wind Pressure Humidity
    00:00 +21°C° 0.5 mm 2 mps 715 mmHg 89%
    01:00 +21°C° 0.6 mm 2 mps 714 mmHg 90%
    02:00 +21°C° 0.6 mm 2 mps 714 mmHg 90%
    03:00 +21°C° 0.6 mm 2 mps 713 mmHg 91%
    04:00 +20°C° 0.2 mm 3 mps 714 mmHg 90%
    05:00 +20°C° 0.2 mm 3 mps 714 mmHg 90%
    06:00 +20°C° 0.2 mm 3 mps 714 mmHg 89%
    07:00 +21°C° 0.4 mm 3 mps 715 mmHg 87%
    08:00 +21°C° 0.4 mm 4 mps 715 mmHg 85%
    09:00 +21°C° 0.4 mm 4 mps 716 mmHg 83%
    10:00 +22°C° 0.6 mm 4 mps 716 mmHg 82%
    11:00 +22°C° 0.6 mm 4 mps 716 mmHg 81%
    12:00 +22°C° 0.6 mm 4 mps 715 mmHg 81%
    13:00 +22°C° 0.6 mm 4 mps 715 mmHg 80%
    14:00 +22°C° 0.6 mm 5 mps 715 mmHg 79%
    15:00 +22°C° 0.6 mm 5 mps 714 mmHg 78%
    16:00 +21°C° 0.4 mm 5 mps 714 mmHg 80%
    17:00 +20°C° 0.4 mm 5 mps 714 mmHg 81%
    18:00 +20°C° 0.4 mm 5 mps 714 mmHg 83%
    19:00 +19°C° 0.1 mm 5 mps 714 mmHg 83%
    20:00 +19°C° 0.1 mm 4 mps 715 mmHg 84%
    21:00 +19°C° 0.1 mm 4 mps 715 mmHg 85%
    22:00 +18°C° 0.1 mm 4 mps 715 mmHg 85%
    23:00 +18°C° 0.1 mm 4 mps 714 mmHg 85%

    24 October, Tuesday

    Time Temperature Precipitation Wind Pressure Humidity
    00:00 +18°C° 0.1 mm 4 mps 714 mmHg 85%
    01:00 +18°C° 0 mm 4 mps 714 mmHg 86%
    02:00 +18°C° 0 mm 4 mps 714 mmHg 86%
    03:00 +18°C° 0 mm 3 mps 713 mmHg 86%
    04:00 +18°C° 0 mm 3 mps 714 mmHg 87%
    05:00 +18°C° 0 mm 3 mps 714 mmHg 87%
    06:00 +18°C° 0 mm 3 mps 715 mmHg 88%
    07:00 +20°C° 0 mm 3 mps 715 mmHg 82%
    08:00 +21°C° 0 mm 3 mps 716 mmHg 76%
    09:00 +24°C° 0 mm 3 mps 716 mmHg 70%
    10:00 +26°C° 0 mm 3 mps 716 mmHg 65%
    11:00 +28°C° 0 mm 3 mps 716 mmHg 60%
    12:00 +29°C° 0 mm 2 mps 716 mmHg 55%
    13:00 +29°C° 0.2 mm 2 mps 715 mmHg 56%
    14:00 +29°C° 0.2 mm 2 mps 714 mmHg 57%
    15:00 +29°C° 0.2 mm 2 mps 714 mmHg 58%
    16:00 +28°C° 0.3 mm 3 mps 714 mmHg 63%
    17:00 +27°C° 0.3 mm 3 mps 714 mmHg 68%
    18:00 +25°C° 0.3 mm 3 mps 714 mmHg 73%
    19:00 +23°C° 0 mm 4 mps 714 mmHg 76%
    20:00 +22°C° 0 mm 4 mps 715 mmHg 79%
    21:00 +21°C° 0 mm 4 mps 715 mmHg 81%
    22:00 +21°C° 0 mm 4 mps 715 mmHg 82%
    23:00 +20°C° 0 mm 4 mps 714 mmHg 83%

    25 October, Wednesday

    Time Temperature Precipitation Wind Pressure Humidity
    00:00 +20°C° 0 mm 3 mps 714 mmHg 84%
    01:00 +20°C° 0 mm 3 mps 714 mmHg 84%
    02:00 +20°C° 0 mm 3 mps 714 mmHg 85%
    03:00 +20°C° 0 mm 3 mps 714 mmHg 85%
    04:00 +20°C° 0 mm 3 mps 714 mmHg 86%
    05:00 +19°C° 0 mm 3 mps 714 mmHg 86%
    06:00 +19°C° 0 mm 2 mps 715 mmHg 87%
    07:00 +23°C° 0 mm 2 mps 715 mmHg 79%
    08:00 +25°C° 0 mm 2 mps 715 mmHg 71%
    09:00 +27°C° 0 mm 2 mps 716 mmHg 63%
    10:00 +29°C° 0 mm 2 mps 715 mmHg 58%
    11:00 +31°C° 0 mm 2 mps 715 mmHg 52%
    12:00 +32°C° 0 mm 2 mps 715 mmHg 47%
    13:00 +32°C° 0.9 mm 2 mps 714 mmHg 47%
    14:00 +32°C° 0.9 mm 2 mps 714 mmHg 48%
    15:00 +32°C° 0.9 mm 1 mps 713 mmHg 48%
    16:00 +31°C° 0.2 mm 2 mps 713 mmHg 54%
    17:00 +29°C° 0.2 mm 2 mps 713 mmHg 59%
    18:00 +28°C° 0.2 mm 3 mps 713 mmHg 65%
    19:00 +27°C° 1.6 mm 3 mps 713 mmHg 71%
    20:00 +25°C° 1.6 mm 3 mps 713 mmHg 77%
    21:00 +24°C° 1.6 mm 3 mps 714 mmHg 84%
    22:00 +24°C° 0.5 mm 3 mps 714 mmHg 85%
    23:00 +24°C° 0.5 mm 2 mps 714 mmHg 86%

    26 October, Thursday

    Time Temperature Precipitation Wind Pressure Humidity
    00:00 +23°C° 0.5 mm 1 mps 713 mmHg 87%
    01:00 +23°C° 0.4 mm 2 mps 713 mmHg 87%
    02:00 +23°C° 0.4 mm 2 mps 713 mmHg 87%
    03:00 +23°C° 0.4 mm 2 mps 712 mmHg 87%
    04:00 +23°C° 0.1 mm 2 mps 712 mmHg 87%
    05:00 +23°C° 0.1 mm 2 mps 713 mmHg 87%
    06:00 +23°C° 0.1 mm 2 mps 713 mmHg 87%
    07:00 +24°C° 0.2 mm 3 mps 713 mmHg 83%
    08:00 +25°C° 0.2 mm 3 mps 714 mmHg 78%
    09:00 +26°C° 0.2 mm 3 mps 714 mmHg 74%
    10:00 +28°C° 0.3 mm 4 mps 714 mmHg 67%
    11:00 +30°C° 0.3 mm 4 mps 713 mmHg 61%
    12:00 +32°C° 0.3 mm 4 mps 713 mmHg 54%
    13:00 +33°C° 1 mm 4 mps 713 mmHg 53%
    14:00 +33°C° 1 mm 4 mps 712 mmHg 52%
    15:00 +33°C° 1 mm 3 mps 712 mmHg 51%
    16:00 +31°C° 1.6 mm 3 mps 712 mmHg 56%
    17:00 +29°C° 1.6 mm 3 mps 712 mmHg 61%
    18:00 +28°C° 1.6 mm 3 mps 712 mmHg 65%
    19:00 +27°C° 1 mm 2 mps 712 mmHg 69%
    20:00 +26°C° 1 mm 2 mps 711 mmHg 72%
    21:00 +25°C° 1 mm 2 mps 711 mmHg 76%
    22:00 +24°C° 0.5 mm 2 mps 711 mmHg 78%
    23:00 +24°C° 0.5 mm 2 mps 711 mmHg 80%
    Show more